Regional Weather Roundup
Issued by NWS

Home | Current Version | Previous Version | Graphics & Text | Print | Product List | Glossary On
Versions: 1 2 3 4 5 6 7 8 9 10 11 12 13 14 15 16 17 18 19 20 21 22 23 24 25 26 27 28 29 30 31 32 33 34 35 36 37 38 39 40 41 42 43 44 45 46 47 48 49 50
854
ASUS45 KCYS 272310
RWRWY

WYOMING REGIONAL WEATHER ROUNDUP
NATIONAL WEATHER SERVICE CHEYENNE WY
500 PM MDT TUE SEP 27 2016

NOTE:  "FAIR" INDICATES FEW OR NO CLOUDS BELOW 12,000 FEET
WITH NO SIGNIFICANT WEATHER AND/OR OBSTRUCTIONS TO VISIBILITY.

WYZ001-280000-
YELLOWSTONE NATIONAL PARK

CITY           SKY/WX    TMP DP  RH WIND       PRES   REMARKS
LK YELLOWSTONE   N/A     62  42  47 CALM      30.34F
W YELLOWSTONE  NOT AVBL

$$
WYZ002>013-054>058-071-098>099-280000-
NORTHERN WYOMING

CITY           SKY/WX    TMP DP  RH WIND       PRES   REMARKS
JACKSON        SUNNY     73  34  23 CALM      30.24R
CODY           FAIR      77  40  26 E8        30.14S
GREYBULL       FAIR      77  46  33 CALM      30.06F
WORLAND        FAIR      77  43  29 CALM      30.08F
SHERIDAN       FAIR      80  42  25 NW14      30.06S
BUFFALO        FAIR      78  34  20 N13       30.13S
GILLETTE       FAIR      78  38  23 NW13      30.08S
HULETT         FAIR      77  41  27 N10       30.08S
NEWCASTLE      FAIR      79  32  18 NW13      30.07S

$$
WYZ014>020-022>026-101>103-280000-
CENTRAL WYOMING

CITY           SKY/WX    TMP DP  RH WIND       PRES   REMARKS
BIG PINEY      FAIR      72  34  24 CALM      30.26F
PINEDALE       FAIR      73  23  15 NW6       30.27S
DUBOIS         FAIR      72  25  17 N5        30.25S
LANDER         FAIR      75  35  23 E3        30.16F
RIVERTON       FAIR      72  42  34 NE6       30.17F
CASPER         FAIR      78  34  20 W10       30.14S
DOUGLAS        FAIR      81  32  17 NW13      30.11F

$$
WYZ021-027>030-104>119-280000-
SOUTHERN WYOMING

CITY           SKY/WX    TMP DP  RH WIND       PRES   REMARKS
EVANSTON       FAIR      73  30  20 E7        30.27F
FORT BRIDGER   FAIR      74  32  21 N3        30.30F
ROCK SPRINGS   FAIR      70  31  23 CALM      30.26F
DIXON          FAIR      73  33  23 W7        30.27F
RAWLINS        FAIR      72  32  23 W12       30.25F
SARATOGA       FAIR      72  30  21 NW13      30.27S
LARAMIE        FAIR      71  26  18 N14       30.26F
CHEYENNE       FAIR      77  24  14 N7        30.17F
TORRINGTON     FAIR      84  26  12 W9        30.04F
PINE BLUFFS    FAIR      81  23  12 N5        30.12S

$$




USA.gov is the U.S. government's official web portal to all federal, state and local government web resources and services.